Find Starlink 31548

NORAD ID: 59193 Int'l Des: 2024-045 Owner: SPXS Country: US Constellation: starlink operational
LEOCIRCULAR

Current View

Loading 3D Globe...

About Starlink 31548

Starlink 31548 (NORAD 59193) is a starlink constellation satellite (v2 mini) launched Mar 11, 2024 by SPXS of US. It operates in LEO, CIRCULAR orbit with a mass of 730.00 kg.

About Starlink 31548

Description loading...

Upcoming Passes

Passes for default location (London). Set your location on the main map for personalized predictions.

Altitude History

Loading altitude history...

Two-Line Element Set

1 59193U 24045R 26173.41640832 .00001997 00000-0 82022-4 0 9993
2 59193 43.0018 221.4753 0001498 277.4186 82.6495 15.27599715129171
Epoch: Jun 22, 2026 • Age: 31 hours

Current Status

Altitude 488.7 km
Velocity 7.62 km/s
Sub-Earth Point -24.84°S, 99.43°W
Launch Date Mar 11, 2024
Age 2.2 years
Type internet

Technical Details

Classification Payload
Mass 730.00 kg
Dry Mass 700.00 kg
Total Mass 730.00 kg
Length 0.30 m
Diameter 4.10 m
Span 29.00 m
Shape Box + pan
Manufacturer SPXS
Bus Type Starlink V2M
Phase Status In Orbit
Owner/State SPXS/US

Most Searched